Weather History for Grosseto, Italy

Change the Weather History Date:

Friday, August 30, 2013

  Actual Average Record
Temperature  
Mean Temperature 76 °F -  
Max Temperature 90 °F 80 °F 91 °F (2003)
Min Temperature 63 °F 58 °F 55 °F (1998)
Cooling Degree Days 12    
Growing Degree Days 26 (Base 50)    
Moisture  
Dew Point 59 °F    
Average Humidity 63    
Maximum Humidity 100    
Minimum Humidity 12    
Precipitation  
Precipitation 0.00 in 0.08 in - ()
Sea Level Pressure  
Sea Level Pressure 30.02 in    
Wind  
Wind Speed 3 mph ()    
Max Wind Speed 8 mph    
Max Gust Speed -    
Visibility 19.0 miles    
Events      
Averages and records for this station are not official NWS values.
T = Trace of Precipitation, MM = Missing Value Source: Averaged Metar Reports

Daily Weather History Graph

Daily Weather History Graph

Search for Another Location

Airport:

Trip Planner

Search our weather history database for the weather conditions in past years. The results will help you decide how hot, cold, wet, or windy it might be!

Date:

Astronomy

Aug. 30, 2013 Rise Set
Actual Time 6:38 AM CEST 7:53 PM CEST
Civil Twilight 6:09 AM CEST 8:22 PM CEST
Nautical Twilight 5:33 AM CEST 8:57 PM CEST
Astronomical Twilight 4:56 AM CEST 9:34 PM CEST
Moon 12:59 AM CEST (8/30) 4:00 PM CEST (8/30)
Length of Visible Light 14h 13m
Length of Day
13h 15m
Waning Crescent, 31% of the Moon is Illuminated
Aug 30
Waning Crescent
Sep 5
New
Sep 12
First Quarter
Sep 19
Full
Sep 27
Last Quarter

Hourly Weather History & Observations

Time (CEST) Temp. Heat Index Dew Point Humidity Pressure Visibility Wind Dir Wind Speed Gust Speed Precip Events Conditions
12:55 AM 68.0 °F - 68.0 °F 100% 30.06 in - North - - N/A   Clear
1:55 AM 66.2 °F - 66.2 °F 100% 30.04 in - North - - N/A   Clear
2:00 AM 67 °F - 66 °F 97% 30.04 in 19 mi North 4.6 mph - -  
2:55 AM 66.2 °F - 66.2 °F 100% 30.06 in - North - - N/A   Clear
3:55 AM 66.2 °F - 64.4 °F 94% 30.04 in - North - - N/A   Clear
4:55 AM 64.4 °F - 64.4 °F 100% 30.04 in - North - - N/A   Clear
5:55 AM 64.4 °F - 64.4 °F 100% 30.01 in - North - - N/A   Clear
6:55 AM 64.4 °F - 62.6 °F 94% 30.01 in - North - - N/A   Clear
7:55 AM 68.0 °F - 62.6 °F 83% 30.01 in - North - - N/A   Clear
8:00 AM 67 °F - 63 °F 84% 30.03 in 25 mi ENE 3.5 mph - -  
8:55 AM 73.4 °F - 60.8 °F 65% 30.04 in - North - - N/A   Clear
9:55 AM 78.8 °F - 57.2 °F 47% 30.04 in - North - - N/A   Clear
10:55 AM 82.4 °F - 50.0 °F 32% 30.04 in - North - - N/A   Clear
11:55 AM 86.0 °F - 48.2 °F 27% 30.01 in - North - - N/A   Clear
12:55 PM 87.8 °F - 44.6 °F 22% 30.01 in - North - - N/A   Partly Cloudy
1:55 PM 89.6 °F - 44.6 °F 21% 30.01 in - North - - N/A   Partly Cloudy
2:00 PM 89 °F - 44 °F 12% 30.01 in 25 mi WNW 2.3 mph - -   Scattered Clouds
2:55 PM 87.8 °F - 51.8 °F 29% 29.98 in - North - - N/A   Partly Cloudy
3:55 PM 86.0 °F 84.2 °F 53.6 °F 33% 29.98 in - North - - N/A   Partly Cloudy
4:55 PM 84.2 °F 83.0 °F 55.4 °F 37% 29.98 in - North - - N/A   Partly Cloudy
5:55 PM 84.2 °F - 51.8 °F 33% 29.98 in - North - - N/A   Partly Cloudy
6:55 PM 82.4 °F 81.4 °F 53.6 °F 37% 29.98 in - North - - N/A   Partly Cloudy
7:55 PM 77.0 °F - 59.0 °F 54% 29.98 in - North - - N/A   Partly Cloudy
8:00 PM 77 °F - 60 °F 45% 29.99 in 25 mi SSW 8.1 mph - -   Scattered Clouds
8:55 PM 75.2 °F - 66.2 °F 73% 29.98 in - North - - N/A   Partly Cloudy
9:55 PM 73.4 °F - 66.2 °F 78% 30.01 in - North - - N/A   Clear
10:55 PM 71.6 °F - 68.0 °F 88% 30.04 in - North - - N/A   Clear
11:55 PM 71.6 °F - 62.6 °F 73% 30.04 in - North - - N/A   Clear